Home   Weather   Asheboro   Past weeks
Flag for USA

Past Weather in Asheboro, North Carolina, USA — Yesterday and Last 2 Weeks

Now
61 °F

Sunny.


Feels Like: 61 °F
Forecast: 61 / 41 °F
Wind: 3 mph from Northwest

Location: Asheboro Municipal Airport

Current Time: Oct 17, 2019 at 6:55:29 pm

Latest Report: Oct 17, 2019 at 6:15 pm


Visibility: 10 mi

Pressure: 29.88 "Hg

Humidity: 36%

Dew Point: 34 °F

Location of AsheboroLocation

Past Weather in Asheboro — Graph

°F

Asheboro Temperature Yesterday

Maximum temperature yesterday: 67 °F (at 5:35 pm)
Minimum temperature yesterday: 52 °F (at 11:35 pm)
Average temperature yesterday: 59 °F

High & Low Weather Summary for the Past Weeks

 TemperatureHumidityPressure
High95 °F (Oct 3, 4:35 pm)100% (Oct 7, 7:35 am)30.34 "Hg (Oct 7, 7:35 am)
Low44 °F (Oct 17, 6:35 am)24% (Oct 14, 3:35 pm)29.67 "Hg (Oct 16, 2:35 pm)
Average65 °F74%30.09 "Hg
* Reported Oct 2 5:35 pm — Oct 17 5:35 pm, Asheboro. Weather by CustomWeather, © 2019

Note: Actual official high and low records may vary slightly from our data, if they occured in-between our weather recording intervals... More about our weather records

Advertising

Asheboro Weather History for the Previous 24 Hours

Scroll right to see more
 ConditionsComfort  
Time TempWeatherWind HumidityBarometerVisibility
5:35 pm
Thu, Oct 17
62 °FSunny.8 mph33%29.87 "Hg10 mi
5:15 pm63 °FSunny.3 mph32%29.87 "Hg10 mi
4:35 pm63 °FSunny.8 mph33%29.88 "Hg10 mi
4:15 pm63 °FSunny.9 mph33%29.88 "Hg10 mi
3:55 pm62 °FSunny.7 mph34%29.87 "Hg10 mi
3:35 pm62 °FSunny.6 mph35%29.88 "Hg10 mi
3:15 pm62 °FSunny.6 mph36%29.88 "Hg10 mi
2:35 pm61 °FScattered clouds.9 mph38%29.89 "Hg10 mi
1:55 pm59 °FSunny.6 mph41%29.91 "Hg10 mi
1:35 pm58 °FSunny.7 mph42%29.92 "Hg10 mi
1:15 pm58 °FSunny.8 mph42%29.93 "Hg10 mi
12:55 pm58 °FSunny.6 mph44%29.93 "Hg10 mi
12:35 pm57 °FSunny.13 mph45%29.93 "Hg10 mi
12:15 pm56 °FSunny.9 mph44%29.95 "Hg10 mi
10:35 am53 °FSunny.14 mph51%29.93 "Hg10 mi
10:15 am52 °FSunny.9 mph53%29.93 "Hg10 mi
9:35 am50 °FSunny.7 mph59%29.93 "Hg10 mi
9:15 am49 °FSunny.6 mph62%29.92 "Hg10 mi
8:35 am45 °FSunny.5 mph69%29.90 "Hg10 mi
8:15 am45 °FSunny.3 mph69%29.89 "Hg10 mi
7:55 am44 °FSunny.5 mph71%29.88 "Hg10 mi
7:35 am44 °FSunny.5 mph70%29.88 "Hg10 mi
7:15 am44 °FClear.5 mph69%29.87 "Hg10 mi
6:55 am45 °FClear.6 mph68%29.87 "Hg10 mi
6:35 am44 °FClear.5 mph73%29.87 "Hg10 mi
6:15 am45 °FClear.3 mph69%29.86 "Hg10 mi
5:55 am45 °FClear.No wind69%29.85 "Hg10 mi
5:35 am46 °FClear.5 mph67%29.85 "Hg10 mi
5:15 am46 °FClear.3 mph66%29.84 "Hg10 mi
4:55 am46 °FClear.5 mph66%29.85 "Hg10 mi
4:35 am46 °FClear.7 mph66%29.86 "Hg10 mi
4:15 am47 °FClear.9 mph62%29.86 "Hg10 mi
3:35 am48 °FClear.3 mph62%29.85 "Hg10 mi
3:15 am48 °FClear.5 mph63%29.86 "Hg10 mi
2:55 am48 °FClear.3 mph63%29.86 "Hg10 mi
2:35 am49 °FClear.5 mph61%29.85 "Hg10 mi
2:15 am50 °FClear.7 mph58%29.84 "Hg10 mi
1:55 am50 °FClear.10 mph60%29.84 "Hg10 mi
1:35 am51 °FClear.9 mph60%29.84 "Hg10 mi
1:15 am51 °FClear.10 mph61%29.83 "Hg10 mi
12:35 am52 °FClear.8 mph57%29.84 "Hg10 mi
12:15 am52 °FClear.8 mph58%29.84 "Hg10 mi
11:35 pm
Wed, Oct 16
52 °FClear.5 mph65%29.83 "Hg10 mi
11:15 pm53 °FClear.3 mph63%29.82 "Hg10 mi
10:35 pm54 °FClear.5 mph62%29.82 "Hg10 mi
10:15 pm54 °FClear.5 mph61%29.81 "Hg10 mi
9:55 pm55 °FClear.5 mph57%29.82 "Hg10 mi
9:35 pm55 °FClear.5 mph59%29.80 "Hg10 mi
9:15 pm55 °FClear.5 mph58%29.79 "Hg10 mi
8:35 pm57 °FClear.6 mph53%29.78 "Hg10 mi
8:15 pm58 °FClear.6 mph52%29.77 "Hg10 mi
7:35 pm59 °FClear.6 mph50%29.74 "Hg10 mi
7:15 pm61 °FClear.8 mph44%29.74 "Hg10 mi
6:55 pm63 °FClear.8 mph44%29.73 "Hg10 mi
6:35 pm65 °FSunny.6 mph40%29.72 "Hg10 mi
6:15 pm66 °FSunny.10 mph43%29.71 "Hg10 mi
Weather by CustomWeather, © 2019

See weather overview